Location: Spruce Knob
(38.6995°N, 79.5330°W)
Time: 19:29:44
(UTC-05:00)

Courier 1B Rocket - All Passes

Search period start: 22 January 2022 00:00
Search period end: 01 February 2022 00:00
Orbit: 920 x 1202 km, 28.2° (Epoch: 22 January)

Date Brightness Start Highest point End Pass type
(mag) Time Alt. Az. Time Alt. Az. Time Alt. Az.
22 Jan - 01:04:00 10° S 01:07:33 14° SSE 01:11:00 10° SE night (unlit)
22 Jan - 02:54:28 10° SW 03:00:16 28° SSE 03:05:46 10° ESE visible
22 Jan - 04:47:08 10° WSW 04:53:05 33° S 04:58:44 10° ESE visible
22 Jan - 06:40:44 10° WSW 06:45:46 24° SSW 06:50:38 10° SE visible
23 Jan - 00:06:34 10° SSE 00:06:40 10° SSE 00:06:47 10° SSE night (unlit)
23 Jan - 01:53:47 10° SW 01:59:22 24° SSE 02:04:40 10° ESE night (unlit)
23 Jan - 03:46:03 10° WSW 03:52:12 33° S 03:57:59 10° ESE visible
23 Jan - 05:39:24 10° WSW 05:44:58 28° SSW 05:50:18 10° SE visible
23 Jan - 07:34:16 10° SW 07:37:27 14° SSW 07:40:35 10° S daylight
24 Jan - 00:53:22 10° SSW 00:58:27 20° SSE 01:03:19 10° ESE night (unlit)
24 Jan - 02:45:02 10° SW 02:51:16 32° S 02:57:09 10° ESE visible
24 Jan - 04:38:08 10° WSW 04:44:08 32° S 04:49:48 10° SE visible
24 Jan - 06:32:16 10° WSW 06:36:44 19° SSW 06:41:04 10° SSE visible
24 Jan - 23:53:24 10° S 23:57:31 15° SSE 00:01:32 10° ESE night (unlit)
25 Jan - 01:44:07 10° SW 01:50:19 29° SSE 01:56:10 10° ESE night (unlit)
25 Jan - 03:36:55 10° WSW 03:43:13 35° S 03:49:09 10° ESE visible
25 Jan - 05:30:39 10° WSW 05:35:58 25° SSW 05:41:02 10° SE visible
25 Jan - 22:54:38 10° SSE 22:56:36 11° SSE 22:58:34 10° SE night (unlit)
26 Jan - 00:43:23 10° SW 00:49:21 26° SSE 00:55:02 10° ESE night (unlit)
26 Jan - 02:35:46 10° WSW 02:42:16 35° S 02:48:23 10° ESE visible
26 Jan - 04:29:13 10° WSW 04:35:08 29° SSW 04:40:43 10° SE visible
26 Jan - 06:24:12 10° WSW 06:27:39 15° SSW 06:31:00 10° S visible
26 Jan - 23:42:55 10° SSW 23:48:22 21° SSE 23:53:38 10° ESE night (unlit)
27 Jan - 01:34:41 10° SW 01:41:17 34° S 01:47:30 10° ESE night (unlit)
27 Jan - 03:27:53 10° WSW 03:34:14 33° S 03:40:12 10° SE visible
27 Jan - 05:22:07 10° WSW 05:26:54 20° SSW 05:31:29 10° SSE visible
27 Jan - 22:42:54 10° S 22:47:25 17° SSE 22:51:51 10° ESE night (unlit)
28 Jan - 00:33:45 10° SW 00:40:16 31° SSE 00:46:29 10° ESE night (unlit)
28 Jan - 02:26:37 10° WSW 02:33:16 36° S 02:39:32 10° ESE night (unlit)
28 Jan - 04:20:26 10° WSW 04:26:06 26° SSW 04:31:27 10° SE visible
28 Jan - 06:18:16 10° SSW 06:18:30 10° SSW 06:18:44 10° SSW visible
28 Jan - 21:43:55 10° S 21:46:28 12° SSE 21:49:02 10° SE night (unlit)
28 Jan - 23:33:00 10° SW 23:39:14 27° SSE 23:45:17 10° ESE night (unlit)
29 Jan - 01:25:25 10° WSW 01:32:14 36° S 01:38:42 10° ESE night (unlit)
29 Jan - 03:18:56 10° WSW 03:25:12 31° SSW 03:31:06 10° SE visible
29 Jan - 05:13:58 10° WSW 05:17:46 15° SSW 05:21:28 10° S visible
29 Jan - 22:32:32 10° SSW 22:38:14 22° SSE 22:43:49 10° ESE night (unlit)
30 Jan - 00:24:20 10° SW 00:31:11 35° S 00:37:45 10° ESE night (unlit)
30 Jan - 02:17:34 10° WSW 02:24:14 35° S 02:30:32 10° SE night (unlit)
30 Jan - 04:11:50 10° WSW 04:16:59 21° SSW 04:21:54 10° SSE visible
30 Jan - 21:32:32 10° SSW 21:37:15 17° SSE 21:41:56 10° ESE visible
30 Jan - 23:23:24 10° SW 23:30:07 32° SSE 23:36:38 10° ESE night (unlit)
31 Jan - 01:16:16 10° WSW 01:23:12 37° S 01:29:47 10° ESE night (unlit)
31 Jan - 03:10:07 10° WSW 03:16:07 27° SSW 03:21:48 10° SE visible
31 Jan - 05:07:04 10° SW 05:08:35 11° SSW 05:10:06 10° SSW visible
31 Jan - 20:33:31 10° S 20:36:19 12° SSE 20:39:07 10° SE visible
31 Jan - 22:22:42 10° SW 22:29:03 28° SSE 22:35:20 10° ESE night (unlit)
